GFSCGP_250_rhum_042.txt.gz
RH
96 100 100 100 100 100 80 100 100 93 85 100 100 100 100 99 100 100 100 85 100 100 85 92 100 100 100 100 100 100 100 92 74 85 80 67 52 50 38 29 33 56 64 82
100 100 100 100 100 100 100 100 83 90 99 100 100 100 100 84 100 100 100 100 100 100 100 100 100 99 100 87 84 69 58 62 60 51 38 35 26 24 31 60 71 100 100 100
90 100 100 100 100 100 99 99 89 97 99 100 83 98 100 100 100 100 100 100 100 100 100 100 100 98 98 75 70 70 47 32 22 24 30 31 29 27 26 27 28 32 53 36
94 95 100 100 100 100 90 94 70 66 84 94 100 100 100 100 100 100 100 100 100 100 99 85 84 65 64 45 41 24 26 38 30 28 26 24 25 29 31 35 44 48 46 45
96 88 83 100 95 96 100 75 71 99 100 100 100 95 100 100 92 77 76 69 68 57 54 52 36 36 35 23 32 33 31 28 25 26 28 31 39 41 41 43 46 47 55 63
59 89 99 92 100 100 100 100 100 100 100 100 97 74 70 96 99 91 78 35 39 38 37 32 25 32 35 36 31 28 28 31 34 36 32 35 36 38 41 46 51 56 65 75
85 90 88 94 100 100 100 100 100 100 97 86 98 100 96 61 64 39 51 39 31 22 29 37 37 37 36 32 30 31 31 31 36 34 33 37 39 40 43 46 52 59 70 73
96 100 98 100 100 100 92 88 100 100 81 90 70 57 46 51 53 47 28 33 40 40 39 40 40 39 36 36 37 35 33 33 36 32 36 34 37 42 48 49 57 69 78 81
78 90 90 96 98 100 99 97 92 82 63 40 45 45 58 46 28 31 41 45 37 36 38 41 41 44 41 42 43 37 35 39 41 36 33 37 41 49 51 53 60 73 85 74
92 98 78 84 69 68 70 95 42 41 48 50 45 41 30 25 39 48 43 35 31 34 38 45 50 50 53 52 52 46 45 47 46 40 40 41 43 53 54 55 67 79 72 75
68 92 54 55 48 38 74 60 56 57 46 42 29 26 41 52 52 44 40 40 42 46 52 57 56 56 58 64 61 60 59 48 48 41 45 44 49 53 53 58 76 80 82 75
63 70 41 25 50 63 82 64 41 37 34 29 28 48 52 57 50 47 44 49 52 57 58 62 60 56 59 65 70 71 69 63 66 65 56 53 55 56 56 68 81 77 79 72
69 53 51 54 58 53 45 36 25 26 31 34 46 57 60 50 50 54 54 56 59 60 57 52 48 55 60 60 59 61 94 91 84 73 57 59 63 62 63 76 79 74 69 68
69 56 47 37 36 29 28 26 32 38 41 48 70 47 69 56 60 65 68 67 65 67 69 53 52 53 60 57 65 80 94 92 82 70 66 61 59 60 71 80 78 69 67 70
54 40 33 28 30 42 37 42 41 47 60 59 54 55 61 63 73 79 80 80 89 76 66 67 63 66 65 68 76 75 83 85 76 68 62 52 58 71 73 77 72 67 69 76
40 31 30 43 41 47 38 38 61 72 55 49 56 68 65 63 83 82 92 84 70 83 66 72 74 75 68 76 88 81 72 66 61 54 51 60 71 70 78 79 73 74 78 80
32 42 43 43 35 32 55 50 68 54 52 62 70 75 73 74 84 99 68 57 61 64 60 58 70 74 80 71 66 64 58 54 58 55 62 69 71 82 83 82 81 75 79 78
44 46 41 36 31 75 70 62 56 59 57 58 75 89 88 79 89 74 75 74 68 69 67 65 70 76 80 66 62 68 57 54 54 68 71 74 83 91 85 80 77 71 68 82
47 54 39 42 51 73 63 56 55 63 54 70 90 82 74 74 75 67 72 72 70 59 58 65 76 88 83 75 62 56 52 58 69 74 80 88 81 80 77 71 71 74 73 75
56 52 47 48 55 74 64 64 63 66 54 84 80 76 74 79 77 69 62 55 59 66 71 87 94 82 73 60 62 61 57 73 78 86 87 87 92 85 75 68 75 77 74 67
56 58 64 54 60 75 87 71 81 80 78 74 80 84 82 84 77 73 81 86 83 83 87 93 82 68 62 75 67 69 82 82 93 90 88 92 84 70 65 69 66 66 68 51
57 59 59 66 68 80 90 90 91 86 92 89 86 90 78 74 90 93 88 98 88 76 83 88 70 72 79 68 74 86 86 90 84 90 88 80 71 68 64 72 75 70 47 29
54 56 54 56 57 80 91 82 91 100 92 87 81 72 94 100 98 94 95 100 92 77 75 66 66 64 61 76 86 84 83 79 86 87 84 73 68 68 75 76 63 45 35 29
52 52 47 53 44 57 76 65 90 79 73 80 96 99 100 100 96 86 76 73 78 81 76 67 62 72 83 83 80 82 80 86 85 84 73 64 65 64 64 48 34 26 18 15
48 52 48 58 47 55 46 71 85 71 85 99 100 100 100 87 68 73 78 79 81 80 69 68 73 79 76 78 80 82 83 84 82 71 70 66 61 55 40 30 24 22 16 10
62 64 65 62 81 71 57 64 76 97 100 100 92 83 66 64 79 82 81 81 78 68 69 76 77 74 77 77 80 82 82 75 71 62 57 58 50 33 24 23 18 13 11 9

GFSCGP_250_rhum_048.txt.gz
RH
28 56 70 98 82 98 98 100 88 81 92 93 78 100 96 100 100 100 100 100 100 100 100 100 100 100 100 100 76 71 68 76 100 100 100 78 63 59 63 78 100 100 95 50
31 37 54 59 86 90 100 80 95 92 100 100 99 100 100 100 100 100 100 100 100 91 97 100 91 92 96 100 100 100 99 99 89 78 76 92 100 100 90 74 59 45 37 28
32 48 64 82 100 98 100 99 88 100 100 98 94 100 95 100 96 94 90 98 100 100 100 100 100 100 94 83 90 95 97 100 100 100 96 84 73 68 65 46 35 30 29 28
46 64 74 87 99 90 100 91 94 93 100 100 100 100 76 83 95 100 100 100 100 97 98 100 100 100 100 100 100 100 100 96 94 83 60 54 54 43 33 29 29 29 27 28
52 81 90 98 86 92 100 89 100 100 100 100 93 100 100 100 99 99 91 88 100 100 100 100 100 99 88 73 68 62 69 73 65 56 45 46 35 34 32 30 29 28 28 28
44 74 84 94 89 87 78 68 100 98 100 100 100 92 78 97 87 84 90 94 89 92 85 74 58 58 55 44 44 71 67 37 34 36 40 36 36 35 33 32 30 29 29 30
50 79 91 78 86 85 75 69 88 78 87 83 85 71 67 76 76 67 67 64 64 60 60 57 52 36 35 34 28 37 83 48 43 43 38 38 38 38 37 35 36 35 34 38
55 81 79 94 93 79 67 72 82 81 62 62 75 66 76 99 97 82 61 53 49 42 42 40 40 35 34 32 36 55 79 66 45 43 43 41 40 39 45 49 44 39 36 32
53 69 93 99 99 81 83 69 98 100 82 56 50 74 79 83 88 78 58 25 27 35 42 39 36 45 42 42 67 77 84 70 53 49 42 36 43 48 50 46 43 41 41 40
61 54 84 100 97 89 83 97 98 98 80 69 67 74 72 64 48 27 38 44 35 38 35 30 41 49 44 63 77 79 64 47 47 45 49 49 51 49 47 49 50 57 54 52
70 68 84 100 90 90 93 75 78 80 83 65 61 57 48 33 30 42 53 44 37 33 35 53 52 45 42 43 42 42 46 47 46 47 50 50 48 50 58 66 69 60 59 60
59 78 90 81 73 70 94 97 91 83 74 73 59 38 31 29 33 38 46 33 29 34 45 55 50 48 52 51 53 53 52 48 48 48 45 47 49 61 70 73 69 62 56 57
37 82 85 85 88 99 94 100 98 83 70 60 38 19 38 40 40 41 32 35 35 43 52 52 55 58 59 63 65 71 66 60 63 60 55 58 73 74 66 60 55 58 60 61
30 57 88 76 60 83 80 70 50 42 60 52 48 46 44 42 28 26 32 53 72 62 57 61 63 63 83 80 70 74 76 79 75 62 59 62 56 52 57 60 67 67 60 62
49 51 59 73 78 76 83 96 70 58 50 46 43 38 32 26 36 37 67 78 72 54 58 63 61 59 59 75 79 72 68 58 53 58 58 53 56 66 72 72 70 69 68 74
76 96 90 73 72 83 89 100 66 46 47 36 31 30 33 34 40 67 82 64 54 61 61 68 80 80 75 68 64 56 50 58 61 55 53 63 69 76 74 76 77 78 78 72
76 76 90 100 98 93 100 89 61 46 37 33 38 42 39 32 34 55 64 62 67 69 69 62 56 54 53 61 68 72 67 59 58 60 67 78 83 79 79 80 81 78 68 66
68 80 98 100 84 88 87 65 40 42 34 41 43 38 31 40 56 57 54 61 66 70 73 72 70 69 76 75 72 77 76 65 70 72 78 87 85 82 80 80 76 66 73 67
84 80 86 91 82 59 41 38 34 32 38 46 48 50 68 72 64 57 60 66 70 72 73 72 83 93 78 73 86 87 74 74 77 73 83 87 90 83 84 80 71 69 67 69
75 85 86 88 60 38 33 37 40 39 59 73 57 63 70 66 65 66 71 82 81 80 85 87 78 69 86 89 85 76 78 83 79 89 100 98 86 93 83 72 73 78 80 74
74 97 84 85 52 38 42 43 44 65 70 57 64 72 75 69 69 82 87 87 89 83 79 88 90 97 100 97 82 83 90 82 88 99 96 84 91 86 71 77 82 82 79 68
69 98 97 91 67 44 44 50 48 66 69 58 69 78 74 79 85 90 88 88 92 91 94 91 95 100 91 82 83 88 84 90 94 91 83 88 89 76 85 88 87 81 61 54
85 99 91 85 82 62 48 47 55 52 58 71 80 81 85 92 86 79 74 72 78 88 93 91 92 89 89 89 92 87 96 92 89 80 85 90 83 84 90 90 77 59 53 41
88 88 95 84 92 89 77 56 60 52 60 68 68 75 79 72 65 57 58 63 79 93 89 91 98 96 99 94 89 92 86 81 73 82 88 76 82 91 91 72 57 53 38 29
100 98 83 87 95 94 89 73 66 63 57 65 67 64 60 60 59 62 76 82 87 84 84 91 98 100 96 91 81 80 76 75 86 84 74 83 93 92 71 57 47 30 28 20
100 100 100 86 90 90 86 79 75 71 71 71 71 71 67 61 80 92 93 91 89 86 94 98 100 96 82 72 75 77 78 87 83 74 83 96 90 66 55 43 28 24 17 13

GFSCGP_250_rhum_051.txt.gz
RH
20 24 54 56 71 83 96 100 100 99 82 96 100 100 100 100 100 100 100 100 100 100 100 100 100 100 100 100 100 96 100 96 100 100 100 100 91 89 99 90 81 69 73 100
19 29 60 72 87 95 100 100 100 80 89 100 100 98 99 99 100 100 100 100 97 94 77 74 95 84 79 95 100 100 100 100 100 97 96 95 94 61 54 91 93 100 86 75
20 29 59 73 88 82 86 94 86 78 97 85 100 100 100 100 100 100 100 100 100 97 100 100 100 100 100 99 100 94 74 95 100 100 94 92 71 88 99 88 64 58 60 40
21 32 57 72 93 94 85 86 90 76 96 100 100 100 100 99 100 100 100 100 100 100 100 100 100 85 100 100 100 100 100 100 94 91 89 79 68 55 47 51 56 47 40 37
20 36 60 67 97 100 90 97 89 76 80 100 94 90 100 100 100 100 100 100 100 99 100 100 94 78 75 84 93 86 79 63 51 53 56 52 42 39 60 53 40 39 40 39
19 38 65 74 100 100 97 90 89 85 89 93 100 99 100 97 100 90 85 82 78 82 79 76 84 90 72 66 59 54 48 46 68 90 88 65 54 49 49 40 37 38 40 42
24 40 57 68 94 100 100 95 89 95 84 66 83 68 72 95 93 97 100 100 86 79 89 84 77 66 69 58 57 45 34 69 99 100 98 88 74 56 44 44 45 44 41 38
36 37 51 65 90 100 100 95 96 82 74 66 91 100 84 86 86 84 81 93 99 78 60 50 45 47 40 42 37 38 51 91 99 100 100 98 77 60 47 44 43 40 42 43
45 26 55 55 64 85 92 96 87 85 79 60 61 71 77 71 63 56 54 66 64 59 61 40 37 31 38 36 39 43 67 95 100 99 84 83 69 50 44 40 37 40 44 46
41 28 50 56 51 62 77 84 92 94 85 85 71 68 60 56 60 60 58 52 38 31 43 54 44 40 36 40 47 54 90 93 88 72 79 62 50 40 35 36 41 48 51 57
49 37 32 68 67 61 71 87 94 89 86 88 85 97 91 78 68 62 32 23 22 30 36 39 34 33 36 51 74 78 64 71 68 59 54 48 49 45 44 46 53 62 60 55
54 45 38 45 67 64 66 93 100 100 98 99 86 84 76 67 56 43 43 51 47 49 43 30 32 46 66 70 57 56 61 47 39 60 61 52 44 42 49 60 61 57 71 80
56 57 51 32 56 61 74 100 100 97 91 77 57 58 38 35 39 56 75 48 44 42 33 32 39 64 72 62 64 68 68 46 47 47 50 59 63 66 64 58 56 58 60 63
52 48 52 42 28 33 76 84 78 96 87 64 47 30 32 50 72 81 48 31 31 28 28 33 56 71 64 62 62 64 72 73 82 93 96 92 75 66 56 57 54 54 72 83
57 50 48 51 51 36 65 87 94 87 50 53 58 54 45 41 34 31 28 29 38 35 24 45 72 69 73 78 73 77 92 98 100 96 85 66 64 60 57 53 59 74 88 90
67 47 44 51 61 52 43 56 74 58 41 79 48 45 40 34 33 37 42 41 41 41 55 69 64 65 67 68 75 88 93 90 91 77 67 68 60 52 58 69 82 89 94 90
90 54 45 49 62 56 60 83 55 49 57 59 45 34 38 32 34 36 39 41 47 71 77 64 58 64 70 79 92 92 89 82 70 71 74 69 66 65 76 87 92 95 88 93
93 62 46 49 58 92 86 72 67 73 70 63 40 38 44 36 29 29 36 58 70 68 60 58 66 72 78 80 77 70 64 66 69 67 64 62 68 82 92 97 91 81 86 91
95 67 50 47 66 82 87 81 68 72 61 36 34 37 39 36 34 50 68 71 69 63 61 64 70 79 82 78 73 78 80 72 75 75 78 80 86 96 92 89 82 94 98 88
99 63 52 54 71 92 90 86 69 50 39 38 40 45 47 50 51 57 64 70 68 67 69 76 78 79 78 80 74 70 77 76 77 82 87 95 95 93 84 83 96 93 87 87
84 60 53 53 66 100 98 82 65 41 41 47 44 47 60 69 59 60 67 70 82 89 93 90 79 67 58 58 65 77 83 83 84 95 100 98 82 79 82 94 91 90 91 98
83 52 50 64 66 100 97 84 69 50 46 50 53 53 53 63 66 69 77 84 86 83 75 61 52 52 63 79 87 94 97 97 100 98 91 80 79 84 96 95 90 92 97 99
64 47 51 74 99 98 100 86 78 67 62 58 55 59 58 53 55 62 62 62 63 65 64 66 69 80 97 98 97 100 99 100 100 95 81 80 89 97 94 93 94 100 95 90
48 47 65 100 100 100 100 100 82 74 82 88 81 66 64 63 57 61 68 69 69 69 74 82 94 96 93 98 100 100 100 100 98 80 80 89 94 93 91 91 92 83 82 67
68 71 95 100 100 100 100 100 99 95 93 89 90 79 75 74 69 67 71 74 74 74 76 84 90 98 100 100 100 100 100 86 75 80 87 90 88 88 90 90 78 78 73 65
92 99 99 100 100 100 100 100 100 99 99 100 97 86 78 74 76 78 77 79 83 90 96 100 100 100 100 100 98 88 78 77 87 88 87 86 85 88 88 74 72 67 64 56

GFSCGP_250_rhum_054.txt.gz
RH
17 22 26 43 75 84 89 94 93 99 100 80 79 93 92 100 100 100 100 98 100 100 100 100 100 100 100 100 100 100 100 96 92 100 100 100 100 100 95 100 100 100 100 98
19 22 26 38 67 90 80 78 75 93 86 77 100 100 100 100 100 100 100 81 79 83 88 100 100 100 100 100 100 100 100 100 91 61 82 71 90 100 99 99 98 94 84 78
23 26 24 40 61 77 100 88 84 89 86 100 100 100 100 100 100 100 100 100 96 88 100 100 100 100 100 100 96 79 73 92 81 98 88 91 94 89 99 100 97 98 100 91
30 28 26 44 62 75 100 92 100 94 82 99 100 99 97 82 86 99 97 92 90 88 100 100 100 100 95 84 77 94 100 100 100 100 100 85 79 66 67 78 72 58 46 48
36 30 27 46 61 66 84 100 100 96 92 89 64 81 91 95 87 89 100 100 100 100 100 95 74 72 100 100 100 100 95 100 100 100 97 79 65 58 52 55 56 51 43 42
39 34 31 41 60 61 81 97 100 96 98 80 82 78 85 89 85 89 100 100 100 100 98 100 100 100 100 100 100 82 77 79 76 66 69 52 70 62 50 51 53 58 68 63
44 34 36 35 60 63 75 82 98 99 86 100 94 71 74 87 84 99 100 100 100 100 100 100 100 96 79 78 68 69 58 57 61 54 46 79 98 83 67 76 78 91 83 66
51 40 37 29 51 65 62 86 81 96 90 88 96 79 87 86 77 88 86 84 84 88 86 71 62 61 68 56 52 52 50 47 40 64 99 100 100 90 100 100 91 92 69 51
59 47 36 37 38 56 56 73 99 80 92 95 100 100 100 100 100 100 100 90 81 74 80 82 75 62 52 39 47 48 44 39 50 95 100 100 100 100 100 86 60 58 51 46
56 52 37 36 30 54 58 76 80 99 97 99 100 100 97 83 80 77 81 75 73 79 85 76 58 48 36 48 47 42 39 41 73 100 100 100 100 93 65 49 59 49 41 37
64 53 38 42 35 30 69 68 87 88 97 100 100 99 100 98 95 99 100 96 91 80 60 42 49 52 43 40 35 35 38 61 84 92 86 100 92 60 48 47 48 47 51 54
68 54 47 41 37 33 32 76 73 78 95 100 100 96 99 91 92 93 90 93 78 64 80 63 52 46 42 31 36 44 56 67 87 80 100 100 80 59 65 68 58 63 58 57
62 62 54 46 40 36 32 43 81 90 98 93 96 92 100 98 94 88 69 47 46 50 51 45 41 37 32 33 53 51 60 72 78 98 100 82 78 70 78 85 82 64 61 67
65 76 59 53 41 39 37 26 58 98 86 76 80 77 74 62 63 58 66 59 55 52 42 34 25 25 29 38 58 67 68 89 98 92 71 74 88 79 88 90 76 72 72 71
90 81 70 65 42 39 40 37 32 66 93 97 83 94 68 44 58 47 34 33 34 32 30 28 30 35 37 54 69 72 92 87 77 76 88 88 80 80 91 82 71 74 76 77
86 79 79 73 62 49 41 42 43 55 47 83 84 88 60 53 45 42 37 44 46 44 44 38 27 30 42 71 74 76 78 78 78 81 79 79 94 97 84 76 73 66 74 86
95 85 80 79 63 54 41 43 40 53 64 59 74 72 60 54 46 42 38 51 46 36 34 35 33 39 56 63 64 61 70 83 94 98 100 100 92 79 75 72 69 78 78 80
100 93 80 73 65 60 46 50 50 61 71 66 62 56 57 54 49 38 50 48 37 33 37 52 73 85 84 72 71 80 89 99 100 100 89 71 70 68 68 67 72 72 78 87
97 100 92 85 61 58 58 50 48 57 95 98 74 48 53 48 38 39 50 48 40 40 60 75 78 74 70 72 76 84 98 96 87 69 65 63 68 68 72 76 78 82 88 91
100 93 93 94 70 58 55 50 50 78 100 64 60 63 47 41 40 43 47 48 49 49 62 72 74 75 82 91 95 91 93 88 83 63 65 70 76 82 85 88 89 94 97 100
98 95 97 76 67 70 56 54 48 72 88 73 68 60 43 45 50 46 43 44 58 63 63 66 75 80 82 81 78 73 66 57 52 64 72 77 84 88 96 96 95 100 100 99
100 100 100 93 72 70 59 59 65 78 88 85 80 71 49 46 50 55 57 57 54 53 60 67 69 70 69 70 68 63 59 64 75 80 87 95 96 98 93 94 100 100 94 91
100 100 99 80 71 71 62 66 74 69 75 87 82 83 76 71 72 75 73 64 62 65 63 65 66 66 63 61 62 66 78 84 86 94 100 100 99 95 94 100 98 96 98 99
100 98 91 79 72 66 58 83 85 96 100 100 100 98 93 88 84 84 89 87 78 75 72 70 67 67 68 75 84 89 87 92 100 100 100 99 94 92 99 97 97 99 100 100
89 87 80 66 61 64 66 76 100 98 100 100 94 99 100 89 78 86 89 90 86 82 78 78 81 88 94 95 93 93 99 100 100 100 94 82 87 95 96 99 100 100 100 92
80 70 63 58 58 69 80 100 100 96 100 98 95 96 100 100 100 98 98 95 94 94 93 92 92 93 93 93 99 100 100 100 96 83 76 86 90 96 99 99 100 98 91 83

GFSCGP_250_rhum_057.txt.gz
RH
49 34 23 28 28 55 79 77 77 76 82 88 81 94 91 100 100 94 100 100 100 90 100 100 100 100 67 56 52 57 78 91 88 67 63 70 74 81 62 68 83 78 78 76
50 49 30 31 29 52 79 89 88 100 92 99 92 100 100 100 94 97 100 100 100 92 86 100 100 92 86 87 78 82 65 47 49 42 43 60 76 51 50 59 66 73 82 89
49 42 31 30 29 54 64 94 99 81 84 89 100 100 100 97 89 65 70 86 86 84 81 78 90 100 100 100 100 100 100 74 69 65 59 60 56 64 62 60 68 95 85 71
53 39 33 27 29 54 58 81 96 84 85 76 96 100 100 100 100 97 100 98 93 97 86 71 92 100 100 100 100 100 100 99 98 91 100 100 100 100 100 90 81 79 76 70
55 44 38 28 33 44 64 78 91 88 85 88 82 84 86 84 84 100 96 98 100 100 100 100 100 100 100 100 99 99 96 96 93 90 80 70 94 100 88 80 69 62 57 57
63 55 45 33 32 34 61 60 69 81 99 99 92 81 97 96 96 98 90 83 82 82 88 90 100 94 79 69 65 85 98 96 100 100 100 98 72 78 79 68 58 61 64 59
76 52 51 38 29 35 49 59 64 63 87 100 90 80 68 84 90 100 100 100 99 87 87 90 87 98 100 100 100 100 96 91 82 74 70 62 56 64 89 90 86 92 85 80
70 51 49 42 30 38 36 57 64 77 81 100 96 72 92 100 89 89 100 100 100 100 100 96 82 84 88 81 83 92 94 77 59 65 62 58 76 99 76 86 100 100 100 95
58 56 45 42 35 31 36 57 65 74 100 100 100 100 89 95 94 100 100 96 96 97 99 86 94 82 74 82 84 72 64 56 52 55 55 79 89 87 100 100 100 100 100 82
66 63 50 58 42 30 35 38 64 70 88 99 100 100 100 93 82 91 96 100 99 99 89 86 96 85 74 60 37 36 42 46 46 43 53 78 87 100 100 100 100 98 63 71
69 65 54 52 43 42 36 37 48 72 78 88 100 100 100 99 96 89 99 99 100 100 100 100 84 62 53 31 48 45 42 40 38 44 63 89 100 100 100 100 100 83 76 72
75 81 62 56 47 43 37 37 39 59 85 97 100 95 100 100 100 100 100 100 100 100 90 77 71 50 36 43 46 48 40 33 38 60 77 97 100 100 100 100 96 91 99 85
78 77 72 56 46 50 47 38 38 39 68 95 100 99 86 100 98 95 95 93 85 80 78 70 50 51 56 46 35 36 36 38 58 82 84 99 100 100 100 79 100 100 81 80
92 78 76 58 57 60 57 45 36 40 40 79 100 78 74 77 78 74 76 66 53 57 64 64 56 55 44 35 31 34 38 49 73 86 91 100 100 100 100 97 80 84 83 90
100 99 75 62 66 59 72 58 38 44 40 46 80 98 71 83 88 85 86 68 57 51 44 41 38 34 32 34 35 49 72 76 78 82 86 94 81 81 74 75 74 80 85 99
100 90 77 65 61 70 76 58 55 40 40 44 60 71 74 88 92 86 80 71 47 43 40 36 37 37 32 31 35 42 53 75 83 82 79 66 64 75 71 70 79 96 100 97
100 100 84 73 75 77 96 55 50 41 45 43 53 78 73 94 100 97 84 70 48 37 41 42 36 29 26 26 27 32 46 63 69 64 62 66 71 74 89 99 100 96 80 85
100 91 95 87 72 80 79 56 46 54 46 46 50 75 73 70 80 82 82 69 52 36 43 51 39 34 35 39 46 55 59 59 61 67 72 76 85 99 100 97 79 74 81 83
99 100 96 94 78 91 100 57 56 56 61 50 43 44 65 80 95 97 97 75 42 39 44 56 58 58 69 80 85 82 79 77 78 84 92 99 100 92 74 74 75 82 83 77
99 99 100 94 76 86 100 78 61 49 73 43 50 61 88 93 89 88 67 45 41 40 43 51 60 63 61 61 70 84 98 100 100 97 89 80 73 73 74 82 89 88 83 84
98 92 92 96 88 99 100 85 54 72 71 54 50 49 89 100 92 85 60 42 45 51 54 54 56 58 59 64 71 78 79 76 73 75 74 76 80 87 89 86 80 80 85 91
100 100 100 98 93 100 87 92 86 77 63 59 54 62 94 100 100 95 83 64 48 51 57 62 66 64 63 65 68 70 70 73 76 79 80 84 88 90 91 86 88 91 95 91
100 100 100 82 79 92 96 94 85 69 65 55 73 89 92 100 100 100 100 94 83 86 87 83 82 81 80 78 79 78 77 79 83 84 84 86 88 88 89 95 98 97 86 85
74 89 74 66 91 100 100 95 72 65 66 60 91 91 100 97 97 100 100 100 100 97 92 85 94 92 92 89 88 85 85 82 79 77 80 87 85 90 94 92 93 90 90 88
85 72 69 86 76 67 67 71 67 63 56 64 91 99 84 86 97 91 80 76 75 80 81 93 94 94 93 86 83 88 86 85 84 84 85 82 87 81 82 87 84 86 91 90
80 53 49 56 57 54 53 69 70 62 52 66 83 97 78 86 81 77 73 68 73 76 71 68 68 68 75 94 97 93 86 82 81 82 85 82 94 96 87 85 97 98 94 90

GFSCGP_250_rhum_060.txt.gz
RH
100 97 52 39 29 22 29 68 63 78 86 100 100 99 100 93 74 63 60 78 89 85 100 80 100 92 100 100 100 88 76 84 91 100 100 100 100 100 100 100 100 100 97 93
100 80 47 38 33 24 29 62 65 69 100 92 98 100 100 100 100 92 86 90 100 93 99 96 100 100 81 66 68 66 58 58 62 86 95 93 92 91 78 86 90 91 82 71
98 78 46 45 35 28 28 54 70 66 100 100 82 99 100 100 100 75 61 83 99 100 100 88 96 100 100 100 83 64 58 59 71 96 71 65 64 62 54 50 58 64 69 79
100 74 54 52 33 29 29 47 62 68 84 90 90 88 89 88 77 95 98 89 82 83 100 99 80 81 95 96 100 99 95 72 85 98 63 44 34 41 49 73 91 91 75 76
100 77 60 58 34 27 32 40 62 62 85 78 85 84 93 100 100 100 100 100 93 87 84 86 73 81 76 86 100 100 97 95 83 86 93 91 60 53 60 59 65 63 68 74
100 69 65 60 40 33 30 33 57 70 68 70 77 72 72 76 91 100 100 100 100 100 99 100 100 89 96 98 84 79 84 87 86 78 74 59 66 87 94 80 69 63 57 57
100 62 68 56 46 38 32 32 50 64 73 75 80 89 91 90 90 83 84 92 100 100 100 100 98 94 92 100 99 98 93 80 63 61 72 74 74 72 63 63 64 65 62 64
98 68 64 58 51 42 36 30 39 62 69 76 79 88 100 90 96 92 85 81 72 89 97 100 100 100 100 100 100 90 88 90 86 86 90 89 70 62 72 70 100 93 67 83
94 74 65 60 57 42 47 36 35 53 70 70 92 85 80 98 100 98 100 100 74 56 57 65 77 91 96 99 100 100 92 88 91 81 73 67 68 93 80 97 100 100 84 100
87 79 79 72 64 54 52 36 37 44 62 77 76 83 68 81 74 96 78 81 78 80 83 71 67 70 68 60 63 62 63 58 43 43 59 70 76 95 100 100 100 94 100 100
71 71 83 81 70 64 61 41 40 39 40 54 79 77 76 79 81 90 98 90 94 88 81 72 61 53 52 50 54 61 61 66 74 61 49 45 53 66 96 100 100 100 100 100
64 87 89 99 80 66 64 50 36 43 42 45 72 82 74 75 76 68 84 83 81 81 81 70 71 70 68 70 66 44 48 50 52 52 45 37 41 63 79 87 100 100 100 100
82 79 82 99 76 85 74 52 44 36 46 42 45 87 86 96 80 77 77 76 71 77 79 84 81 75 61 49 53 58 55 46 36 34 33 34 43 64 82 95 100 100 100 100
76 85 100 99 82 92 78 60 46 44 56 47 44 44 48 87 98 88 75 81 81 80 84 79 71 67 66 53 51 53 43 35 30 29 34 39 49 72 85 100 100 100 100 100
88 98 100 91 100 96 89 68 53 52 60 62 50 46 43 43 90 93 96 89 92 94 97 93 83 62 39 34 37 38 41 45 54 69 66 79 75 85 92 97 100 100 100 100
92 100 100 100 100 93 97 75 58 57 60 54 52 52 44 43 51 63 86 98 100 100 100 100 90 33 36 44 43 51 48 56 79 80 87 77 92 100 100 100 98 97 78 67
100 100 100 100 88 94 100 67 67 64 59 56 47 45 52 50 61 65 64 95 100 100 100 100 80 41 38 45 48 43 34 33 36 42 58 70 80 86 88 83 70 63 66 84
100 100 99 89 92 99 100 89 64 62 69 55 43 57 57 52 70 100 99 100 100 100 93 84 86 55 38 45 65 56 42 40 51 61 66 69 68 67 67 68 74 85 96 98
100 100 98 97 98 100 100 96 62 58 66 50 55 67 65 58 56 96 100 100 100 100 95 94 94 50 39 42 53 62 66 67 66 67 70 69 68 69 72 80 86 84 84 84
100 100 100 86 100 100 100 92 72 59 85 42 55 58 62 64 56 59 100 100 100 100 95 82 49 41 45 47 52 57 59 61 64 66 70 72 74 75 78 86 90 87 90 98
100 100 100 100 100 100 100 99 69 58 67 53 50 66 65 66 58 58 80 100 100 100 100 81 51 43 47 47 51 60 76 83 84 82 82 86 89 90 88 88 93 100 100 93
100 100 100 100 100 100 100 83 65 68 55 68 74 74 74 68 61 61 64 91 97 99 100 100 88 66 56 62 81 92 96 99 100 100 100 100 99 100 100 99 94 88 87 83
100 100 100 100 100 100 95 77 64 66 93 99 76 78 67 60 60 88 89 82 86 85 83 90 91 89 83 93 100 100 90 88 96 98 92 93 99 100 100 100 98 96 88 87
100 100 100 99 92 84 73 74 74 98 93 83 62 58 67 67 58 62 96 92 83 94 97 97 99 97 97 91 80 78 90 94 84 82 90 99 100 91 84 83 88 85 81 83
100 100 99 93 99 100 98 73 80 78 68 56 50 48 55 64 65 58 62 86 90 87 95 94 86 89 85 84 88 89 87 79 76 95 78 90 99 99 97 87 74 72 84 81
100 100 100 100 100 86 75 71 61 54 53 50 50 54 50 46 51 57 58 92 96 93 98 92 91 94 89 87 91 92 90 87 85 92 88 90 99 100 99 87 74 82 77 79

GFSCGP_250_rhum_063.txt.gz
RH
95 75 100 85 72 53 28 24 48 71 73 90 100 100 83 99 98 93 95 100 94 100 93 73 100 100 94 100 100 100 94 99 100 100 100 100 100 100 100 100 100 100 100 100
81 78 100 78 78 57 39 22 36 73 75 97 91 92 100 90 83 77 74 85 80 90 98 67 100 100 100 100 84 100 100 88 95 99 100 100 99 100 100 100 100 100 100 100
73 91 100 99 85 53 39 23 32 60 74 100 100 75 100 96 95 90 81 77 74 89 96 88 86 100 100 94 77 68 80 74 76 68 72 74 89 98 100 99 93 95 93 94
81 100 100 100 88 51 37 27 30 59 75 69 67 73 92 91 100 75 88 96 100 100 100 88 100 75 100 100 100 100 98 97 78 74 64 55 67 70 77 83 85 70 72 67
83 100 100 100 85 50 42 32 29 52 70 78 70 70 68 69 77 79 89 98 86 94 99 100 89 82 60 70 99 100 100 98 100 98 79 52 45 54 82 70 57 48 48 48
89 100 100 100 86 47 46 37 32 27 56 73 78 73 66 84 98 100 100 100 88 100 100 100 100 100 100 86 80 72 66 69 92 94 85 75 98 81 67 69 72 70 62 60
75 99 100 100 80 49 54 45 33 29 44 64 67 76 86 83 84 93 100 100 96 100 100 90 80 100 95 88 84 85 79 75 72 69 69 62 75 79 82 58 59 59 63 66
99 85 100 100 60 55 71 62 48 35 32 60 63 66 76 84 87 96 89 82 96 94 97 95 88 88 86 85 82 72 91 100 95 84 82 87 86 86 73 60 66 72 62 64
98 94 100 100 53 66 78 76 57 43 33 33 40 64 69 74 86 84 100 100 68 78 79 88 98 96 99 96 94 74 56 57 63 66 66 65 65 63 69 66 60 60 62 85
99 95 100 100 55 72 71 82 62 52 41 32 33 44 62 73 68 75 89 86 73 81 70 66 69 78 84 89 88 95 95 85 75 74 67 62 51 38 43 58 60 68 72 75
95 94 100 90 58 82 79 99 79 61 45 40 36 37 54 75 68 60 64 67 100 79 68 72 76 82 85 87 82 82 78 66 66 72 69 54 48 74 64 59 63 83 100 96
77 100 100 99 78 92 86 100 81 67 56 44 43 38 36 45 90 85 66 60 56 64 64 55 56 54 53 48 52 61 65 63 62 47 41 61 45 46 52 52 48 56 69 99
75 98 100 100 94 93 80 99 83 64 66 53 49 42 36 37 51 96 98 87 76 62 56 56 53 58 62 61 57 49 45 42 48 56 54 58 51 40 35 34 35 44 56 71
58 100 100 100 100 80 100 89 83 68 66 64 50 49 43 44 43 42 58 100 100 92 72 69 69 64 73 74 64 49 50 40 36 40 40 37 34 33 42 46 47 41 46 64
69 90 100 100 99 89 100 100 100 70 69 69 58 52 44 45 47 50 54 79 93 99 97 98 93 89 82 70 58 58 47 40 41 46 48 55 55 55 60 65 68 69 66 80
99 99 100 100 98 96 100 100 100 81 79 68 71 55 45 45 50 51 47 52 94 100 100 100 100 100 100 100 88 82 63 44 45 54 66 77 65 48 50 52 52 62 77 85
100 100 100 100 93 87 100 100 97 93 77 71 64 54 52 47 48 55 52 51 54 90 99 100 100 96 100 97 99 96 91 58 43 49 61 61 64 72 80 91 97 99 96 90
100 100 100 100 79 68 100 100 90 98 84 74 55 61 61 51 52 52 58 59 55 64 94 100 100 100 100 100 97 98 92 52 38 46 58 69 74 78 82 80 84 88 92 90
100 100 100 95 91 100 100 100 100 100 95 65 62 65 56 59 66 66 60 64 57 58 75 87 100 100 100 99 99 100 71 41 47 51 57 61 63 68 75 80 84 87 91 97
100 100 100 94 85 95 100 100 98 81 100 65 62 62 50 66 82 79 68 63 62 64 74 100 100 100 98 92 89 72 49 44 47 47 49 60 79 88 97 100 98 98 100 100
97 97 100 92 87 100 100 100 100 97 100 71 63 54 62 77 96 81 66 61 66 76 85 77 91 98 96 96 93 91 84 72 57 53 64 84 98 96 93 100 100 99 98 100
99 98 94 98 94 100 100 100 100 100 99 83 57 54 71 95 95 72 55 51 60 61 66 76 83 82 85 95 99 100 99 100 100 96 97 100 100 100 100 100 98 100 100 100
80 92 100 96 100 100 100 100 100 100 100 80 66 75 81 93 77 66 48 46 42 47 56 60 71 84 99 96 100 100 100 100 100 100 100 95 97 95 98 97 95 100 100 100
100 97 92 90 100 100 100 100 100 100 100 78 96 77 64 77 75 55 50 46 49 45 44 56 59 80 99 98 96 95 98 100 100 96 93 87 85 90 100 100 100 100 100 99
100 100 100 100 100 100 100 100 100 98 70 77 86 71 75 75 58 50 50 61 62 52 47 49 63 76 98 98 98 99 98 94 98 96 100 100 95 96 100 100 100 100 98 87
100 99 98 100 100 100 99 94 95 87 94 93 86 76 80 67 59 62 71 72 70 61 52 47 67 67 85 99 99 97 96 98 98 96 86 88 97 99 98 95 100 92 84 84

GFSCGP_250_rhum_066.txt.gz
RH
87 97 72 91 77 85 79 87 46 26 46 73 80 62 52 77 84 50 85 92 80 73 87 100 97 88 76 86 72 100 100 100 100 100 100 100 100 100 95 89 80 74 88 98
100 98 87 82 73 100 100 86 39 30 33 69 96 100 95 86 64 69 68 94 100 74 57 85 100 83 66 62 59 83 78 72 73 65 62 73 77 82 79 100 98 100 100 100
97 87 99 74 84 100 100 79 38 29 25 53 79 100 98 71 100 100 82 78 89 100 87 61 61 63 81 90 54 46 36 40 44 40 47 60 75 97 100 99 90 93 96 100
100 100 74 71 100 100 100 80 37 28 25 45 69 62 54 92 76 99 76 83 80 78 90 89 69 100 86 100 100 99 96 61 64 86 86 62 62 67 66 64 76 100 100 100
100 95 69 70 100 100 100 85 37 40 28 40 61 76 59 68 66 98 73 83 91 100 100 100 100 70 87 100 100 94 59 72 83 98 100 84 60 64 55 48 52 67 82 71
100 87 91 64 100 100 100 87 39 44 34 30 51 65 64 75 68 97 95 97 100 99 100 100 100 91 87 99 99 100 100 100 100 92 90 88 83 90 70 80 83 74 96 73
100 98 89 100 98 100 100 92 44 51 37 32 31 52 59 63 66 70 84 100 85 93 100 100 93 96 99 88 77 69 69 78 85 79 77 77 74 71 70 74 76 68 70 86
100 70 100 100 88 100 100 83 51 61 46 38 34 31 60 64 70 77 72 69 80 74 79 96 100 100 85 79 89 90 100 94 66 73 81 94 100 96 77 67 64 59 65 68
100 100 100 100 100 100 100 76 60 62 72 48 38 31 38 72 68 74 68 62 79 79 61 75 72 89 99 98 90 78 83 81 78 72 76 82 60 59 57 51 50 57 59 63
82 97 100 100 100 100 100 61 64 67 68 70 52 34 32 40 53 72 74 65 78 99 94 60 64 72 69 71 74 80 67 59 55 56 56 59 58 51 46 53 72 81 100 92
100 90 81 100 100 100 100 62 59 68 63 59 58 43 38 33 38 47 69 90 70 70 72 95 96 66 70 68 78 77 70 71 67 62 56 48 45 42 66 70 93 90 90 72
85 100 83 100 100 99 100 87 56 68 64 62 64 39 41 41 34 37 36 49 67 79 71 64 77 77 62 66 65 78 70 60 52 47 47 95 91 85 100 93 76 66 58 54
97 74 86 100 100 93 100 98 67 76 60 64 60 45 35 47 38 37 43 41 52 62 72 75 74 72 64 59 58 63 74 74 66 64 96 100 79 82 74 64 57 48 43 40
100 69 71 76 100 100 99 96 72 79 100 100 100 61 43 46 45 41 38 48 43 37 41 74 99 96 87 73 71 76 72 77 78 72 68 62 68 76 44 44 44 40 39 40
100 94 59 72 100 93 100 100 94 94 89 100 100 82 59 53 48 43 43 38 46 54 48 38 33 62 78 86 84 86 74 69 67 75 70 63 67 45 45 44 49 45 45 48
100 94 65 86 96 100 100 98 82 100 100 100 98 87 77 63 54 44 40 46 42 49 57 52 44 51 61 67 68 91 83 74 77 59 62 57 60 52 45 43 48 55 60 62
100 100 100 82 60 81 86 97 88 100 100 100 97 87 80 72 63 52 42 54 55 47 50 54 51 51 74 87 92 94 98 95 86 79 77 78 72 59 44 42 49 59 64 63
100 100 90 100 92 55 98 100 88 89 100 93 96 100 96 91 65 50 45 50 58 59 53 56 56 55 63 87 95 92 84 78 90 86 87 88 78 51 47 51 54 51 54 67
100 100 100 100 100 92 99 100 100 87 96 93 100 100 100 96 73 54 51 47 63 65 62 56 53 50 57 71 84 96 98 95 90 90 90 83 67 48 45 46 47 49 70 98
100 100 100 100 100 100 100 100 100 100 87 100 100 99 93 99 73 62 61 63 67 66 67 45 42 50 52 51 52 53 68 83 92 98 98 97 92 91 91 92 92 92 100 97
100 100 100 100 100 100 100 100 100 82 98 100 88 72 100 99 79 78 63 65 70 68 65 50 45 48 44 44 47 55 61 83 98 98 100 100 98 92 95 100 100 100 99 96
100 100 100 100 99 93 100 100 100 100 98 74 72 98 100 100 96 74 69 60 60 62 58 50 48 59 64 57 52 47 54 57 80 95 99 100 100 100 100 100 98 94 100 95
100 100 100 100 100 100 100 100 96 96 86 99 98 100 100 100 84 69 78 66 64 66 59 53 58 63 71 71 70 52 52 63 74 81 95 98 100 100 99 98 100 100 100 100
100 100 100 100 100 100 100 99 89 85 81 86 83 99 100 100 78 65 72 64 70 72 67 61 69 85 80 76 79 58 51 58 85 95 100 100 100 100 99 100 97 97 94 94
100 100 100 100 99 99 94 94 98 99 99 99 100 100 100 94 94 76 68 59 81 87 78 79 86 95 87 79 83 70 62 54 62 80 95 97 100 100 100 100 99 95 95 91
98 100 100 100 100 99 99 94 95 100 100 100 100 100 100 100 95 74 56 63 90 99 94 94 97 100 81 86 96 84 65 57 68 85 97 100 100 100 100 99 94 95 94 95

GFSCGP_250_rhum_069.txt.gz
RH
90 77 64 46 37 57 72 62 100 97 50 28 29 75 81 74 68 76 100 100 100 72 67 87 97 94 100 100 100 100 100 100 100 100 100 100 100 100 100 100 100 100 100 100
100 89 61 43 34 69 82 85 100 90 62 28 25 45 75 79 80 100 96 80 95 98 67 73 97 98 100 92 100 93 96 100 100 100 100 100 100 99 100 100 100 95 100 96
100 89 51 39 39 99 61 96 100 100 64 26 25 37 58 61 54 75 98 64 55 98 86 59 92 100 100 100 100 100 98 100 100 100 100 99 99 97 93 95 89 90 97 91
100 82 57 37 89 89 62 100 100 100 70 28 27 30 49 55 50 64 78 85 77 67 91 100 78 71 92 98 74 64 62 80 88 85 77 78 85 83 81 79 72 69 78 80
100 78 60 50 100 95 58 100 100 100 79 34 30 26 46 51 48 53 74 87 70 74 62 79 100 87 71 68 77 72 72 61 54 65 81 68 64 76 81 86 75 63 63 69
100 100 68 98 100 82 71 95 100 100 85 38 33 29 32 50 55 54 61 85 77 79 77 63 65 87 95 89 99 100 90 82 82 78 59 48 63 63 70 64 45 55 57 62
97 100 75 100 98 71 98 85 90 100 92 39 39 32 25 37 58 72 61 57 58 62 64 83 95 90 76 69 100 100 98 100 100 100 97 75 76 68 63 60 59 55 61 58
54 100 99 100 79 52 100 100 99 100 94 41 45 37 30 27 35 59 83 87 70 69 82 69 62 66 66 67 52 57 67 90 90 81 92 96 76 66 60 58 55 44 48 50
55 69 82 88 77 87 100 100 100 100 92 43 46 42 46 31 27 29 50 64 81 84 62 74 78 65 72 76 60 57 52 53 54 56 53 49 61 57 43 43 42 47 55 64
52 69 74 68 82 69 74 100 100 100 89 48 47 46 53 35 32 29 36 45 55 51 66 85 100 85 75 69 83 74 65 68 68 62 57 50 44 42 46 50 61 94 96 100
48 62 75 77 89 100 73 100 100 100 100 48 46 48 55 43 34 32 31 34 50 57 59 52 59 62 64 85 72 59 58 52 42 38 55 46 43 49 100 100 98 99 100 100
100 81 62 63 100 100 68 100 100 100 100 86 53 48 64 57 43 39 37 33 34 39 46 61 66 62 66 73 88 97 53 51 94 100 100 100 99 100 100 100 99 100 100 100
99 79 67 65 70 100 76 90 100 100 100 100 54 61 100 96 58 46 40 38 35 32 38 36 38 44 56 58 76 66 45 100 100 100 98 100 94 95 100 100 100 100 100 100
97 81 70 74 69 100 100 94 100 100 100 100 62 76 62 100 79 53 46 37 34 34 35 36 41 36 38 44 48 53 60 100 100 98 93 100 100 99 100 100 100 94 94 97
94 78 76 81 76 100 100 100 100 100 100 100 57 86 65 100 97 69 57 53 44 37 35 39 41 57 39 29 31 38 43 62 89 100 100 100 100 90 78 72 72 65 54 56
89 84 86 90 86 96 82 91 79 100 100 100 79 73 80 100 100 74 70 68 54 40 37 40 49 48 54 45 39 32 34 65 62 72 77 64 61 59 58 51 46 62 68 58
74 94 86 100 100 100 71 78 91 100 100 100 80 71 76 98 100 82 82 85 68 53 39 45 45 51 46 50 52 58 52 48 49 48 53 48 46 51 53 51 52 59 69 73
84 74 94 100 82 80 83 100 100 96 100 100 89 72 80 100 100 100 98 92 80 63 44 44 43 49 48 41 40 43 43 42 43 46 54 67 74 83 80 77 87 88 84 82
83 64 96 100 99 100 100 100 96 80 100 100 91 94 92 90 90 100 100 96 79 74 60 48 46 49 48 42 42 55 61 56 48 47 38 37 38 44 58 67 80 93 96 95
85 70 99 100 94 100 77 100 100 100 89 100 100 100 100 88 83 100 100 86 70 66 63 63 51 50 54 54 49 56 62 62 62 62 53 43 37 39 51 72 80 92 95 96
83 67 100 100 100 100 100 100 100 100 100 100 100 100 95 78 100 100 100 99 85 77 50 72 58 58 62 61 59 61 70 78 78 75 69 67 58 44 48 59 77 88 96 90
78 70 100 100 98 100 100 100 100 100 100 100 100 100 90 75 70 77 100 100 79 64 54 69 65 64 68 64 73 69 72 69 83 83 75 66 63 56 51 57 72 78 74 82
78 77 99 100 100 100 100 100 100 100 100 100 100 99 85 68 55 67 88 94 77 64 87 68 74 68 62 78 83 78 69 72 87 84 79 75 70 64 58 52 66 83 99 97
75 72 87 100 100 100 100 100 100 100 93 90 92 91 75 54 61 87 100 97 92 83 94 87 86 64 58 80 94 74 74 86 89 84 87 81 72 68 61 55 57 84 99 100
75 70 92 100 100 100 100 100 100 100 100 100 97 73 60 71 82 100 100 89 88 85 86 91 99 76 64 83 84 79 87 94 91 99 96 87 86 78 66 61 65 94 100 100
77 76 91 100 100 100 100 100 100 100 100 81 72 84 96 79 76 75 74 81 92 89 96 100 100 79 78 77 86 95 93 93 99 100 99 87 93 87 65 60 77 91 100 99

GFSCGP_250_rhum_072.txt.gz
RH
35 39 97 77 100 82 60 37 49 67 95 100 97 33 24 41 58 66 72 73 98 92 82 45 50 70 58 69 100 100 71 100 100 100 100 100 100 100 100 100 100 100 100 100
62 50 41 73 100 89 45 37 67 66 83 100 92 39 23 44 63 70 99 97 98 98 85 74 56 76 92 100 100 100 100 100 91 89 100 90 100 100 100 98 98 100 100 98
79 58 47 100 100 90 41 45 50 55 100 100 94 39 25 38 56 45 60 65 80 80 57 70 65 85 86 100 100 98 100 95 99 100 100 100 94 91 89 100 82 99 100 75
70 83 58 82 95 92 50 52 54 63 93 100 89 46 25 30 56 50 51 76 82 91 65 55 76 97 100 96 100 100 100 86 96 100 100 100 96 97 99 99 100 100 100 90
80 100 88 95 100 96 68 77 92 57 82 90 94 54 26 28 50 46 62 71 88 77 61 57 49 80 94 100 100 100 93 98 80 67 76 82 87 87 86 85 84 84 95 85
58 73 95 100 100 100 72 90 98 65 47 50 86 62 28 28 30 54 60 76 94 79 80 63 68 60 58 77 91 100 100 100 100 100 100 98 95 98 92 91 81 68 91 91
98 92 69 69 91 100 81 96 92 81 65 78 100 62 33 31 29 34 51 65 95 88 78 79 88 73 73 53 55 66 80 94 100 97 87 89 100 100 91 76 80 67 61 60
64 100 98 90 88 100 97 82 100 75 70 93 100 75 33 30 34 29 31 46 56 61 88 88 66 72 70 73 56 61 74 95 100 100 99 100 100 100 93 87 65 67 51 44
74 60 75 88 83 81 99 68 95 59 100 95 100 89 37 34 32 30 27 31 53 62 56 55 58 55 60 67 76 73 58 56 77 79 75 73 67 57 55 52 49 45 55 79
67 63 61 65 77 74 87 84 67 65 100 66 100 100 42 38 41 32 30 29 33 53 75 68 56 72 68 63 61 57 76 74 64 50 41 38 42 54 47 43 55 97 74 66
53 52 64 59 66 69 66 76 70 94 70 88 100 100 53 43 58 51 34 28 28 30 35 48 68 83 74 67 62 55 59 56 58 60 60 100 100 100 100 100 100 100 90 100
59 58 66 68 57 62 64 70 65 82 64 100 100 100 100 52 78 99 60 33 31 30 32 39 44 47 52 57 58 56 54 68 87 100 100 99 76 100 85 84 100 88 100 100
46 47 62 59 53 54 53 58 78 100 81 59 100 100 100 65 68 98 97 55 43 41 31 31 35 38 37 39 41 44 46 64 100 100 100 100 100 77 100 100 100 100 87 100
50 60 66 86 93 96 92 84 96 100 100 97 100 100 100 92 54 67 100 90 55 53 46 39 34 33 36 36 38 42 42 66 93 100 98 89 100 100 80 100 100 100 98 86
79 90 99 100 100 99 82 75 100 74 100 89 100 78 100 100 58 56 100 100 80 63 64 58 39 40 32 33 37 39 39 36 53 91 98 96 100 100 100 100 100 100 100 100
85 100 100 100 100 98 82 74 100 68 98 99 83 100 100 100 99 57 91 100 86 60 79 73 59 43 41 36 32 34 37 54 59 72 89 100 100 100 94 100 100 90 100 93
70 97 100 100 100 100 87 81 91 76 47 64 100 100 100 100 100 77 68 82 93 87 77 92 87 64 47 44 47 40 32 33 35 37 40 51 57 72 92 94 95 94 89 85
84 86 100 100 100 88 96 90 88 89 78 84 92 100 99 100 100 68 69 91 97 100 82 95 83 70 59 57 44 49 53 43 39 33 32 32 31 31 30 29 29 30 31 31
84 89 100 100 100 100 100 90 94 84 95 99 100 100 100 100 94 93 78 86 76 82 57 56 77 77 68 58 59 52 48 56 54 53 52 52 46 39 39 39 39 35 37 37
91 97 99 82 98 100 100 99 100 77 99 96 100 100 100 78 78 100 99 91 88 67 68 65 69 68 48 50 67 64 55 50 54 54 59 66 57 53 55 62 65 59 46 46
73 100 89 82 99 100 100 100 100 95 92 100 100 100 100 100 100 100 98 100 91 78 79 81 64 61 68 63 82 76 71 58 52 57 64 63 60 66 72 74 68 64 52 49
56 67 83 97 98 100 100 100 100 92 49 100 100 100 100 97 99 100 100 100 86 88 80 68 65 74 70 86 97 91 92 87 69 59 69 66 66 75 87 82 76 76 68 58
52 64 74 97 100 100 100 100 100 74 77 99 100 100 96 100 100 100 100 100 86 77 76 67 62 55 64 95 96 95 100 93 80 71 82 73 81 83 85 84 84 82 70 70
51 56 63 92 100 100 100 100 100 100 91 99 99 74 97 100 100 100 100 91 68 91 78 54 60 65 82 100 100 100 100 99 84 87 76 63 90 97 94 94 100 96 82 86
43 48 68 91 100 100 99 100 100 100 100 97 84 91 53 97 96 86 88 80 57 77 69 76 82 94 100 100 99 99 92 99 100 100 84 72 94 98 97 100 100 94 90 86
35 60 69 100 95 100 95 100 100 100 100 100 100 100 100 96 91 97 100 91 84 88 72 88 90 98 100 100 94 72 80 100 100 90 76 79 88 100 100 100 100 93 94 87

GFSCGP_250_rhum_075.txt.gz
RH
81 75 100 64 62 45 31 57 98 65 48 48 54 72 94 66 30 24 44 67 91 99 65 58 43 39 34 20 66 93 100 100 100 100 98 100 100 100 100 100 100 100 100 100
86 99 100 71 69 63 33 48 96 64 52 48 54 98 100 76 34 24 41 55 76 86 100 94 60 46 32 36 63 85 93 89 97 100 100 100 100 100 100 100 100 100 100 100
75 74 65 74 77 71 38 87 84 64 48 46 57 77 87 81 37 23 40 50 62 68 100 77 45 54 55 64 58 99 100 100 100 100 100 100 98 100 100 96 100 99 100 99
95 84 99 76 66 99 60 77 72 61 51 54 46 70 79 81 33 24 34 43 53 89 78 65 73 97 100 100 97 75 100 100 100 100 100 100 100 100 100 100 100 100 100 100
100 100 100 81 70 90 100 94 80 70 53 77 48 50 71 84 33 25 27 45 46 59 74 66 73 100 100 100 100 100 100 100 100 96 100 100 99 100 100 100 100 100 94 100
94 99 87 95 100 58 96 100 97 92 62 99 57 59 97 92 37 28 25 39 47 50 95 88 77 86 90 98 99 99 100 100 100 90 73 65 73 72 74 73 80 80 76 74
100 100 100 82 60 68 44 92 100 100 71 90 71 70 100 100 39 28 27 26 44 54 63 85 79 95 96 67 67 86 76 78 76 76 76 84 75 81 69 71 69 70 68 66
100 100 100 100 100 73 65 53 65 100 79 81 83 69 100 100 48 34 29 27 30 58 65 65 80 86 87 84 66 61 60 73 82 74 81 79 94 81 82 88 87 74 75 78
90 97 100 100 96 77 57 58 72 87 82 95 81 84 100 100 78 37 30 33 30 29 52 76 68 66 71 61 65 64 65 58 54 60 72 80 91 83 68 73 63 56 55 54
90 97 100 100 85 76 64 71 60 64 88 100 89 52 100 100 100 41 52 34 33 31 30 32 51 66 58 72 73 51 53 67 81 81 75 77 75 74 67 58 77 92 86 78
78 87 100 93 79 84 80 73 67 58 68 91 89 70 86 100 100 72 45 71 40 32 31 31 31 33 44 57 65 80 83 69 57 77 99 99 94 90 96 100 100 100 100 93
67 74 84 82 78 81 74 84 66 74 81 88 91 72 63 100 100 100 58 97 81 49 36 35 34 31 31 31 32 37 58 75 97 100 100 99 92 98 100 94 91 100 100 100
39 35 55 70 57 56 56 76 66 61 80 83 66 100 53 93 100 100 75 51 100 89 51 48 44 38 37 34 34 33 34 54 95 100 100 100 100 97 68 69 63 92 100 100
25 28 32 50 89 98 100 87 73 68 69 72 61 100 80 50 100 100 99 56 69 100 87 48 53 48 40 39 36 34 35 36 47 76 100 100 100 92 71 62 86 94 99 100
22 23 32 62 67 69 77 70 69 74 69 80 70 100 86 54 100 100 95 91 49 94 94 63 57 61 49 42 44 41 37 34 39 42 65 100 100 100 100 100 100 100 100 100
21 26 33 53 53 60 68 70 65 57 61 87 97 100 91 57 47 99 100 100 84 62 84 69 76 82 65 46 39 47 41 41 36 49 89 100 100 100 100 100 100 94 100 100
26 31 40 50 77 94 58 82 96 83 94 98 100 100 100 78 53 100 100 100 100 90 70 72 95 87 87 76 48 42 50 45 47 63 90 99 92 71 55 67 81 84 99 100
31 40 49 50 80 60 77 100 100 100 98 100 100 100 92 68 84 100 100 100 100 89 87 75 83 64 62 59 59 56 56 44 46 53 58 61 50 44 37 35 35 36 41 41
20 27 46 48 68 52 97 100 100 90 100 100 100 100 91 63 65 100 100 100 100 88 90 80 78 59 54 59 63 54 52 61 54 48 57 53 45 46 46 46 50 49 52 50
26 36 50 42 55 48 100 100 100 100 100 100 94 99 100 70 80 94 100 100 95 83 88 83 64 55 61 64 64 61 65 57 57 62 62 64 66 68 60 53 50 52 62 63
31 40 53 69 55 50 100 100 100 92 100 100 84 97 100 81 89 100 93 100 97 100 100 98 74 64 68 57 63 63 67 61 56 62 68 66 69 70 72 81 66 61 54 60
32 37 50 63 55 69 100 100 100 96 100 100 95 88 100 98 97 83 58 100 100 100 100 100 86 83 96 63 69 66 71 74 65 66 72 66 66 79 94 84 70 71 62 66
26 36 48 40 65 100 100 100 100 100 100 100 100 95 100 99 99 72 57 100 100 100 100 100 100 100 99 65 65 83 91 83 72 75 79 66 71 72 91 91 88 82 67 68
24 32 44 48 85 100 100 94 100 100 100 100 100 90 86 98 72 72 68 100 100 100 100 100 100 100 100 100 81 71 77 74 77 71 82 84 74 77 88 92 92 86 72 66
25 29 43 37 75 88 100 94 100 100 100 100 100 100 100 95 91 76 54 74 80 100 98 100 100 100 100 98 85 87 78 84 100 85 71 82 84 81 84 89 92 83 64 97
19 22 28 37 54 68 95 100 97 100 100 100 100 100 100 100 99 64 77 93 75 74 95 98 100 100 98 99 99 84 87 99 99 86 78 78 79 89 100 91 84 72 80 100

GFSCGP_250_rhum_078.txt.gz
RH
100 60 69 100 68 69 76 100 83 51 37 60 68 52 47 56 86 40 43 27 32 47 60 63 74 60 71 67 58 70 100 100 100 100 100 100 100 100 100 100 100 100 100 100
98 84 100 96 81 97 100 80 88 62 47 40 68 49 45 66 69 65 41 27 30 42 49 59 84 67 58 51 50 49 91 100 100 100 100 100 100 100 100 100 100 100 100 100
100 97 64 78 83 77 78 79 62 57 72 50 70 56 66 70 59 72 52 29 31 45 49 66 80 65 51 48 36 54 74 99 100 100 100 100 100 100 100 100 100 100 100 100
99 99 100 100 100 97 94 96 71 58 96 75 62 63 64 71 60 84 51 28 30 48 58 80 60 61 76 76 89 100 100 100 100 100 100 100 100 100 100 100 100 100 100 100
100 100 96 86 100 85 92 90 46 60 99 90 90 61 64 88 78 92 53 30 27 49 51 62 68 63 70 88 100 100 100 100 100 100 100 100 100 100 100 100 100 100 100 100
99 100 99 100 100 97 82 80 51 57 68 84 92 64 70 97 91 98 61 33 26 35 51 57 61 72 75 92 100 100 100 100 100 100 100 100 100 100 100 100 100 100 100 99
100 100 100 100 100 91 96 98 93 77 46 64 97 68 74 100 97 96 65 33 26 28 55 66 62 71 90 83 90 99 100 100 100 100 100 100 100 100 100 95 94 94 92 88
100 100 100 100 100 100 87 86 70 59 77 58 62 96 87 100 100 92 82 42 37 27 31 62 71 69 75 77 91 78 72 100 100 100 100 100 100 100 94 98 99 100 100 99
100 100 98 100 100 100 100 99 100 83 60 54 51 91 100 100 100 85 83 69 45 29 28 43 68 75 77 73 88 94 96 91 95 94 85 88 92 100 100 100 96 96 94 91
100 100 100 100 100 100 99 100 98 80 68 55 53 67 100 84 100 91 89 84 56 52 31 30 35 57 71 61 67 89 86 71 79 93 96 94 87 83 92 100 100 98 95 100
100 100 100 100 88 97 94 80 90 96 94 73 69 82 100 99 100 100 90 79 96 45 51 40 34 34 36 43 61 70 72 82 73 79 86 97 100 100 100 100 100 90 88 96
100 100 100 100 100 99 86 77 72 70 61 51 68 97 100 100 100 100 100 100 100 56 50 74 42 35 36 37 37 39 51 80 99 88 82 96 93 97 96 93 84 83 96 100
91 81 94 100 95 87 83 76 77 79 80 65 69 95 100 100 100 100 100 100 100 78 45 88 81 43 41 37 39 37 37 39 48 88 79 64 58 72 82 68 81 99 100 94
63 64 67 86 100 100 100 100 100 100 95 84 73 88 100 100 100 100 100 100 100 100 71 70 74 73 44 46 43 40 38 37 41 44 74 75 69 55 44 50 76 81 79 72
27 28 30 42 54 54 67 61 55 64 66 67 85 94 100 100 100 100 100 99 100 100 99 85 80 64 54 44 53 52 45 41 36 38 46 76 100 90 89 77 57 65 73 77
18 17 18 25 40 30 30 40 52 68 55 55 79 87 100 100 100 100 96 89 100 100 100 100 81 71 65 65 52 49 51 47 50 42 45 63 81 82 100 100 100 100 100 100
16 25 17 22 33 31 22 44 56 65 63 67 81 80 100 100 99 100 100 100 100 100 100 100 99 89 68 82 78 47 48 54 56 46 48 46 53 61 73 78 67 52 52 52
20 23 18 27 32 35 26 50 40 46 52 57 78 81 100 100 92 100 100 100 100 100 100 100 100 100 80 75 69 64 52 54 60 56 61 61 49 48 48 48 51 53 52 54
18 24 27 26 33 35 31 40 38 39 62 69 70 90 100 100 100 99 100 99 97 100 100 100 100 100 93 82 74 65 57 49 54 50 51 60 59 51 49 48 47 47 46 49
14 27 22 24 28 30 40 40 29 33 59 57 62 93 100 100 100 100 100 100 99 92 100 100 100 100 97 100 100 80 59 40 38 45 47 46 47 50 47 53 64 63 63 56
16 22 23 28 30 27 33 41 33 46 72 56 64 100 100 100 100 100 100 100 100 100 100 100 100 92 100 100 100 100 95 71 63 50 53 56 53 51 54 56 68 66 66 69
19 21 19 24 24 26 30 35 40 57 54 84 76 99 100 100 100 100 100 100 100 100 100 100 100 100 100 100 100 92 86 70 85 88 82 62 56 68 76 74 78 80 79 79
31 29 26 21 28 43 32 39 38 45 67 88 97 87 100 100 100 97 100 100 100 100 100 82 79 100 100 100 100 100 99 83 68 83 96 76 69 68 74 82 84 91 90 89
20 18 27 22 38 46 37 47 66 61 66 74 93 88 82 100 100 97 89 100 100 100 100 100 79 99 100 100 100 100 98 84 76 60 75 82 78 80 75 90 82 96 100 100
27 17 20 32 40 36 47 46 73 66 70 82 87 89 76 72 92 100 100 96 99 100 100 99 79 73 76 90 92 88 76 73 80 77 95 98 94 87 95 85 87 97 95 98
30 24 19 23 29 36 48 46 74 100 93 93 93 99 100 100 90 86 96 99 90 96 100 100 95 73 87 85 81 74 68 75 78 85 91 84 83 94 98 84 73 84 89 96

GFSCGP_250_rhum_081.txt.gz
RH
91 100 100 100 100 72 46 33 51 83 35 67 69 66 49 72 54 45 58 62 45 22 24 39 43 44 58 68 74 74 88 81 100 100 100 98 100 100 100 100 100 100 100 100
91 100 100 100 100 100 69 74 88 68 44 51 48 64 77 69 58 48 57 76 40 27 25 40 40 48 66 75 69 62 75 76 100 100 100 100 100 100 100 100 100 100 100 100
100 100 100 100 100 99 89 61 76 35 34 53 74 83 72 62 59 54 64 79 55 30 26 41 43 66 61 62 55 49 52 68 100 100 100 100 100 100 100 100 100 100 100 100
100 100 100 100 100 97 86 86 44 45 70 69 45 95 98 79 70 68 72 84 58 30 26 38 50 64 59 58 59 55 47 59 98 100 100 100 100 100 100 100 100 100 100 100
94 100 100 100 100 100 100 76 96 76 82 44 64 55 100 82 83 80 79 79 58 33 27 34 52 54 51 75 84 75 98 99 100 100 100 100 100 100 100 100 100 100 100 100
100 100 100 100 100 99 100 100 100 98 75 44 90 38 100 92 97 84 86 86 68 45 32 29 53 67 53 73 97 92 100 100 100 100 100 100 100 100 100 99 99 100 100 100
100 100 100 91 98 99 99 100 100 78 66 71 67 40 79 84 100 89 83 96 78 51 42 27 40 56 69 66 97 98 100 100 100 100 100 100 100 100 100 100 100 100 100 100
100 100 100 100 100 100 77 82 65 57 80 82 74 58 99 70 93 100 72 100 80 83 51 44 28 50 62 72 81 96 100 100 100 100 100 100 100 100 100 100 100 100 100 100
100 100 100 100 100 100 100 99 100 80 70 59 60 94 100 74 72 90 96 100 90 100 81 53 42 28 55 62 73 73 79 82 88 100 100 100 100 100 100 100 100 100 100 100
100 100 100 100 100 100 91 98 81 65 55 56 78 82 100 91 63 77 100 100 89 98 100 78 53 30 29 48 67 60 58 74 80 79 89 98 100 100 100 100 100 100 100 100
100 100 100 100 100 100 100 100 100 98 88 93 99 100 100 77 67 76 100 100 87 99 100 78 73 68 29 31 34 44 56 71 71 76 70 80 84 93 96 99 97 95 98 96
100 99 100 100 100 100 100 100 100 94 72 69 78 86 100 89 82 71 100 100 95 77 100 75 77 84 44 34 32 34 33 35 40 64 89 80 85 89 93 85 75 76 84 99
100 92 91 100 100 100 96 98 99 94 77 60 67 75 100 99 94 81 99 100 100 90 98 98 62 86 81 52 50 36 35 34 34 38 41 57 82 84 75 66 56 68 86 100
81 82 80 97 100 97 100 100 100 94 92 95 81 85 100 100 100 95 88 100 100 100 100 100 91 73 84 81 77 74 58 40 38 38 38 40 40 49 74 64 62 67 70 73
52 63 60 67 96 96 95 99 98 100 98 76 96 82 92 100 100 100 91 100 100 100 81 100 100 92 73 73 72 75 76 66 57 49 46 42 44 44 47 55 73 63 64 67
30 34 47 57 70 84 84 85 84 85 82 83 100 96 100 100 100 75 84 100 100 100 82 100 100 100 99 99 79 68 58 64 57 63 69 56 47 42 50 75 100 100 100 100
18 21 27 39 48 56 50 52 64 72 74 80 85 94 94 100 100 70 81 100 100 100 100 100 100 100 100 100 100 84 72 68 61 60 64 62 61 70 64 50 45 44 44 46
17 15 17 24 30 36 38 36 44 48 56 54 50 57 58 85 100 74 74 100 100 100 100 100 100 100 100 100 100 91 82 83 72 66 58 60 57 54 52 56 58 54 55 58
25 19 23 23 22 19 20 25 28 29 35 33 37 45 55 74 100 81 83 100 100 100 100 100 100 100 100 100 100 100 100 100 95 83 60 49 51 51 50 48 48 51 53 54
22 21 23 22 24 31 17 25 21 24 30 25 23 42 68 67 98 100 70 81 100 100 100 100 100 100 100 100 98 100 100 92 90 98 79 67 55 44 47 47 43 41 43 58
19 18 19 20 22 21 15 23 23 24 26 23 24 39 65 72 100 100 95 77 99 100 100 100 100 100 100 87 100 100 100 94 96 100 91 75 68 69 69 80 73 67 57 60
15 16 18 19 25 20 15 25 29 30 27 26 23 39 72 87 100 100 100 94 98 100 100 100 100 100 100 75 100 100 100 100 100 100 100 94 69 64 71 74 95 100 85 71
16 15 16 21 28 16 14 22 31 26 29 24 27 33 51 80 90 97 100 100 95 98 98 100 100 100 100 100 100 99 100 100 100 100 100 100 100 100 64 80 86 100 100 100
25 27 30 30 22 20 20 28 31 28 31 30 27 26 43 77 91 93 96 100 98 100 100 100 100 97 100 100 100 100 74 86 99 100 82 66 52 43 53 73 80 86 85 86
34 38 48 51 39 27 25 26 31 32 33 34 34 41 64 94 97 91 95 100 100 100 100 100 100 100 100 100 100 100 100 100 100 100 100 96 95 75 52 74 93 73 72 73
59 43 39 37 49 47 38 30 29 39 44 42 48 54 86 100 100 92 100 100 100 100 98 100 100 100 100 100 100 100 100 100 100 100 100 100 99 95 92 91 78 69 75 84

GFSCGP_250_rhum_087.txt.gz
RH
54 40 31 30 34 46 58 100 100 100 100 96 77 56 52 71 41 40 57 43 36 54 51 69 54 42 24 22 32 33 35 73 97 100 58 92 91 83 99 100 100 99 95 100
41 34 29 27 44 61 83 79 100 100 100 92 59 44 61 96 67 43 43 39 44 49 62 75 61 42 24 28 31 32 37 35 81 98 76 65 98 82 100 100 100 100 100 100
34 26 22 24 44 61 90 100 100 100 100 100 100 66 60 92 57 36 39 71 61 56 69 80 80 41 24 28 35 46 47 39 64 90 94 67 100 100 100 100 100 100 100 100
27 23 21 24 54 83 100 100 100 100 100 61 82 100 72 88 50 37 54 70 72 69 74 82 83 55 28 25 36 37 50 45 68 72 81 100 100 92 86 100 100 100 100 100
19 22 20 26 67 91 100 100 100 100 99 65 100 100 90 98 46 44 69 71 55 69 86 81 77 61 33 24 38 37 40 60 71 84 90 100 100 100 100 100 100 100 100 100
20 20 26 56 72 96 100 100 100 100 100 63 100 100 86 95 41 53 63 64 46 75 97 84 76 69 52 25 33 42 50 51 58 80 95 100 100 100 100 100 100 100 100 100
24 23 47 71 98 100 100 100 100 100 100 96 100 100 100 90 64 67 73 65 62 84 99 90 87 67 71 31 25 42 56 100 53 74 100 100 100 100 100 100 100 100 100 100
32 52 86 100 100 100 100 100 100 100 100 82 82 96 100 98 100 100 72 78 74 69 68 90 97 65 68 57 25 36 43 51 62 88 100 100 100 100 100 100 100 100 100 100
42 77 81 100 100 100 100 100 100 100 100 86 61 67 100 80 98 100 68 64 88 86 60 60 100 98 70 64 30 26 47 50 58 72 100 100 100 100 100 100 100 100 100 100
70 96 87 100 100 100 100 100 100 94 100 90 83 74 100 100 100 95 62 59 92 100 56 48 74 100 96 87 42 26 34 50 52 69 98 100 100 100 100 100 100 100 100 100
94 88 98 99 100 100 100 100 100 98 100 80 66 100 100 99 96 66 51 74 90 75 87 58 50 90 100 98 63 34 24 29 46 47 77 98 100 100 100 100 100 100 100 100
92 100 100 100 100 98 100 100 100 100 91 100 100 100 100 100 82 62 100 76 69 52 92 58 41 64 95 100 78 55 33 26 27 41 48 66 84 88 96 73 89 98 100 100
98 95 100 100 99 100 100 100 100 100 100 100 100 100 98 97 60 100 99 59 66 45 72 71 65 64 57 99 100 75 50 36 29 27 30 51 56 54 55 98 100 90 82 70
98 100 99 100 100 100 100 96 95 100 100 100 100 95 89 66 66 100 100 99 88 56 77 100 62 54 96 56 100 100 80 58 44 33 31 28 30 36 49 52 53 61 83 96
98 98 100 100 100 93 96 100 100 99 94 78 89 73 78 84 94 79 87 89 100 100 67 79 52 37 65 88 84 100 100 84 58 45 41 35 32 30 31 31 31 32 35 37
96 100 94 93 100 100 100 99 100 100 100 100 100 100 100 100 100 94 88 60 80 82 61 68 52 43 50 92 100 100 100 100 91 60 39 45 41 38 32 34 36 37 34 33
90 89 97 89 92 82 97 100 100 91 85 97 100 100 100 100 100 97 98 75 73 81 84 83 59 45 45 57 88 100 100 100 100 100 84 59 49 44 43 43 39 35 33 32
84 82 83 84 77 73 80 76 71 81 100 100 98 100 100 97 99 100 100 100 98 90 86 86 86 78 60 53 65 81 98 100 100 100 100 100 99 79 64 52 48 46 40 38
70 64 60 61 68 76 77 70 68 60 66 76 78 79 80 82 90 96 100 100 100 97 100 100 95 57 54 48 47 57 84 89 100 100 100 100 100 100 100 88 79 63 54 52
37 40 45 49 63 56 43 43 52 58 60 68 67 62 65 72 80 99 73 100 100 100 99 99 100 100 78 63 46 42 60 71 76 100 100 100 100 100 100 100 100 82 79 66
24 23 24 25 27 29 32 38 45 48 48 48 48 47 46 52 51 62 68 84 94 99 91 84 75 68 69 71 65 49 55 63 68 90 100 100 100 100 91 100 100 100 100 95
22 19 20 19 19 18 19 23 25 27 26 32 34 29 31 37 46 46 47 52 62 74 73 67 65 68 71 79 68 88 76 89 92 79 73 90 100 99 100 94 100 100 100 100
30 34 31 29 27 30 34 38 36 36 29 29 30 22 24 74 42 26 32 39 48 60 68 68 68 68 73 75 82 98 100 100 100 99 79 85 96 100 99 71 89 77 67 57
31 29 29 28 28 32 32 36 44 46 47 40 28 21 23 25 21 25 27 31 37 46 55 56 64 59 62 70 93 100 100 100 100 100 100 100 97 100 100 100 100 100 100 100
30 31 29 27 27 29 30 31 38 46 42 38 36 30 29 28 28 24 27 30 31 33 39 41 47 58 70 79 92 100 100 100 100 100 100 100 100 100 100 100 100 100 100 100
31 31 28 27 25 24 28 31 31 43 45 34 30 30 25 24 27 28 31 28 32 38 42 47 51 69 100 100 100 98 100 100 100 100 100 100 100 100 100 100 100 100 100 100

GFSCGP_250_rhum_090.txt.gz
RH
71 54 48 67 58 46 40 35 37 54 47 44 40 51 100 100 99 83 65 35 38 42 52 29 34 48 49 51 31 19 21 32 64 76 100 84 64 100 100 100 100 100 100 100
89 63 60 56 57 50 44 35 38 45 42 47 57 61 100 100 98 81 48 35 48 47 32 28 41 55 53 52 43 22 28 31 41 79 98 98 62 87 100 100 100 100 100 100
76 69 64 50 49 46 46 36 42 33 50 58 64 73 100 100 89 77 49 39 42 44 40 41 46 57 46 54 51 24 34 37 30 43 79 100 64 60 76 96 100 100 100 100
72 54 50 44 38 38 32 32 36 34 57 71 91 59 100 100 100 91 60 43 38 62 40 39 46 56 52 55 60 25 33 38 32 39 84 100 82 52 75 82 88 100 100 94
53 46 36 31 34 32 31 26 28 42 99 93 100 59 100 100 100 100 88 56 41 64 46 41 43 73 53 52 67 56 31 37 35 40 52 97 98 73 54 78 92 100 100 100
43 44 25 24 26 27 24 23 28 53 92 82 100 81 100 100 100 100 84 62 50 78 50 43 90 93 71 46 56 71 26 40 42 47 51 94 100 94 88 86 100 100 100 100
42 39 28 23 24 22 21 24 36 86 100 100 100 100 97 100 100 96 88 78 70 90 51 51 95 82 89 66 42 62 27 44 48 62 78 90 100 100 100 97 99 100 100 100
27 27 23 24 21 23 23 30 52 100 100 100 97 100 93 93 100 100 100 85 84 100 47 45 60 69 66 70 34 78 39 28 49 51 78 99 100 100 100 100 94 100 100 100
21 25 24 21 28 26 27 30 93 100 100 100 100 100 100 97 100 100 100 98 100 100 69 46 58 56 50 100 44 91 53 23 35 42 52 96 100 100 100 100 100 100 100 100
24 25 24 26 30 29 34 76 98 98 100 100 100 100 100 100 90 100 97 92 64 100 99 55 78 48 43 75 69 100 70 35 23 36 45 59 100 100 100 100 100 99 93 100
25 28 29 31 38 46 70 100 100 100 100 100 100 100 100 100 94 100 75 56 87 100 96 45 51 54 56 44 84 96 90 46 27 23 35 46 79 100 100 100 76 82 99 100
27 32 32 39 43 66 87 100 100 91 100 100 100 100 100 100 100 97 61 65 100 100 56 42 80 68 76 46 47 100 97 74 38 28 23 30 40 72 95 100 100 100 100 100
27 31 35 46 72 100 99 97 100 100 96 95 100 100 100 100 100 100 55 100 100 92 52 78 60 44 63 52 45 85 100 98 73 42 33 24 24 34 53 70 91 100 93 100
31 35 44 46 100 100 100 93 96 100 100 93 100 100 98 100 100 100 100 100 100 99 72 53 54 43 45 69 87 64 95 100 100 85 58 36 25 25 26 38 52 64 77 89
28 40 54 87 78 85 100 100 96 100 100 100 100 100 100 100 100 100 100 100 100 100 71 73 45 47 70 97 100 49 63 96 100 100 94 66 42 31 26 25 25 29 44 62
28 58 57 75 89 90 100 100 100 100 99 99 94 88 100 100 98 100 100 100 100 94 66 64 47 46 56 51 93 59 41 85 92 100 100 96 78 50 35 32 29 27 27 26
33 65 85 87 77 95 100 100 100 100 97 81 99 100 100 100 100 100 100 100 86 63 74 58 64 64 56 66 46 57 48 58 89 99 94 100 100 93 70 57 37 41 36 33
39 49 68 92 97 95 96 100 100 100 100 100 100 98 76 81 91 95 90 83 83 90 99 100 100 98 55 50 56 97 91 54 58 97 94 95 100 100 100 100 94 81 66 50
38 34 52 65 81 100 93 93 100 100 100 90 98 100 100 100 100 100 100 100 100 100 100 100 100 96 96 71 88 100 80 69 87 74 76 95 84 89 100 100 100 100 100 99
31 37 50 63 76 97 99 97 92 86 88 100 100 93 90 94 97 100 100 100 100 100 100 100 100 100 100 100 100 100 93 85 51 53 56 73 96 100 88 100 100 100 100 100
32 32 46 56 68 86 88 82 80 72 74 82 91 99 100 100 97 97 92 77 62 74 100 100 97 100 100 100 100 100 81 77 54 46 49 57 54 80 100 98 100 100 100 100
32 32 38 50 52 76 86 86 51 50 53 61 65 66 77 64 73 67 75 67 62 64 73 78 77 73 81 79 77 100 100 100 82 52 48 43 67 50 80 98 100 100 95 98
33 32 32 33 38 51 57 66 63 54 51 55 66 56 53 63 58 65 80 98 99 61 45 45 61 61 66 68 74 86 91 85 86 74 69 61 89 71 71 91 100 100 100 100
34 37 34 30 30 30 34 30 35 44 43 34 31 35 40 36 35 38 42 48 71 40 40 50 46 47 50 52 57 62 67 75 83 89 91 93 80 82 100 99 100 100 94 92
40 40 36 36 29 26 23 24 24 29 23 23 20 22 24 28 35 26 26 24 21 24 26 37 30 34 42 49 47 55 66 78 88 98 94 97 97 91 100 100 100 100 85 89
41 41 38 39 33 30 32 36 36 37 37 43 35 34 40 43 43 26 26 26 24 23 31 27 27 26 31 36 39 45 54 71 87 84 92 98 100 100 100 100 100 100 100 100